COSMOS 1275 DEB, 12705

Orbit data source: Space-Track

COSMOS 1275 DEB, 12705 is space debris in LEO originally from a launch on Thu, 04 Jun 1981 UTC launched from the Plesetsk Missile And Space Complex (PKMTR). Debris objects in space refer to the collection of defunct objects orbiting the Earth. Examples of debris include non-operational satellites, rocket bodies, and fragments generated from explosions, collisions, or faulty payload assembly.

Loading next visibility...
Identifier
12705, 1981-053AZ
Orbit
LEO
Country
Flag of CISCIS
Related business
Manufacturer
Unknown
Mission
Spacecraft
Bus & Motor
Unknown
Mass
Unknown
Launch date (UTC)
1981-06-04 (45 years ago)
Launch vehicle
Unknown
Launch site
Plesetsk Missile And Space Complex (PKMTR)
Object type
Payload
Rocket body
Debris
Shape & HBR
Unknown shape, 0.3 m
Radar Cross Section
Medium (>0.1 m² and <1 m²)

Expand to show TLE details & history
Last TLE update: 1 day ago

TLE from 1 day ago
0 COSMOS 1275 DEB
1 12705U 81053AZ  25348.84629014  .00001671  00000-0  10323-2 0  9994
2 12705  82.8884  10.2634 0026837  26.9670 150.8772 14.04643691248155
Epoch: 2025-12-14T20:18Z
TLE epoch observation values (Epoch: 2025-12-14T20:18:39.468Z)
Latitude
1.8864°
Longitude
161.6114°
Altitude
897.5 km
Speed
7.395 km/s
True Right ascension
12h 40m 07s
True Declination
1° 52' 31"
Sunlit
Object was in daylight at epoch
Visualization orbit readout
Latitude
Unknown
Longitude
Unknown
Altitude
Unknown
Speed
Unknown
Apparent Right ascension
Unknown
Apparent Declination
Unknown
Sunlit
N/A
Visualization observer readout
Local Sidereal Time
19:00:20
Azimuth
Unknown
Elevation
Unknown
Doppler factor
Unknown
Orbital elements
Apogee altitude
894.334 km
Perigee altitude
855.404 km
Semi-major axis
7,253.006 km
Eccentricity
0.00268
Inclination
82.8884°
RAAN
10.2634°
Arg. of periapsis
26.967°
True anomaly
151.02643°
Mean anomaly
150.8772°
Eccentric anomaly
150.95186°
Mean motion
3.51371 °/min
Orbital period
102.46 mins
BSTAR
0.0010323
Loading maneuver chart data...
Computing Atmospheric mass density...
Loading historical data...
Loading historical data...
Loading historical data...
Loading historical data...
Loading historical data...
Loading historical data...
Loading historical data...

Documentation

Showing up to 5 results
|